TimeEDT,TemperatureF,Dew PointF,Humidity,Sea Level PressureIn,VisibilityMPH,Wind Direction,Wind SpeedMPH,Gust SpeedMPH,PrecipitationIn,Events,Conditions,WindDirDegrees,DateUTC
12:15 AM,38.5,32.0,78,29.99,10.0,Calm,Calm,-,N/A,,Mostly Cloudy,0,2013-10-27 04:15:00
12:35 AM,35.8,31.6,85,29.99,10.0,Calm,Calm,-,N/A,,Scattered Clouds,0,2013-10-27 04:35:00
12:55 AM,34.7,31.6,89,29.99,10.0,Calm,Calm,-,N/A,,Scattered Clouds,0,2013-10-27 04:55:00
1:15 AM,33.4,31.3,92,30.00,10.0,Calm,Calm,-,N/A,,Scattered Clouds,0,2013-10-27 05:15:00
1:35 AM,32.7,31.1,94,30.00,10.0,Calm,Calm,-,N/A,,Scattered Clouds,0,2013-10-27 05:35:00
1:55 AM,30.9,30.0,96,30.00,10.0,Calm,Calm,-,N/A,,Clear,0,2013-10-27 05:55:00
2:15 AM,30.7,29.7,96,29.99,10.0,Calm,Calm,-,N/A,,Clear,0,2013-10-27 06:15:00
2:35 AM,29.7,28.6,96,29.99,10.0,Calm,Calm,-,N/A,,Clear,0,2013-10-27 06:35:00
2:55 AM,28.9,28.2,97,29.99,10.0,Calm,Calm,-,N/A,,Scattered Clouds,0,2013-10-27 06:55:00
3:15 AM,28.4,27.9,98,29.98,10.0,Calm,Calm,-,N/A,,Mostly Cloudy,0,2013-10-27 07:15:00
3:35 AM,30.0,29.5,98,29.99,10.0,Calm,Calm,-,N/A,,Overcast,0,2013-10-27 07:35:00
3:55 AM,30.9,29.7,95,29.99,10.0,Calm,Calm,-,N/A,,Overcast,0,2013-10-27 07:55:00
4:15 AM,33.3,31.1,92,29.98,10.0,Calm,Calm,-,N/A,,Overcast,0,2013-10-27 08:15:00
4:35 AM,32.5,31.5,96,29.98,10.0,Calm,Calm,-,N/A,,Overcast,0,2013-10-27 08:35:00
4:55 AM,33.3,32.0,95,29.98,10.0,Calm,Calm,-,N/A,,Overcast,0,2013-10-27 08:55:00
5:15 AM,33.8,32.0,93,29.99,10.0,Calm,Calm,-,N/A,,Overcast,0,2013-10-27 09:15:00
5:35 AM,34.5,32.0,90,29.99,10.0,Calm,Calm,-,N/A,,Overcast,0,2013-10-27 09:35:00
5:55 AM,35.6,32.0,87,29.99,10.0,Calm,Calm,-,N/A,,Overcast,0,2013-10-27 09:55:00
6:15 AM,34.9,32.0,89,29.99,10.0,SW,3.5,-,N/A,,Overcast,220,2013-10-27 10:15:00
6:35 AM,36.0,32.0,86,30.00,10.0,Calm,Calm,-,N/A,,Overcast,0,2013-10-27 10:35:00
6:55 AM,36.1,32.0,85,30.00,10.0,Calm,Calm,-,N/A,,Overcast,0,2013-10-27 10:55:00
7:15 AM,35.6,32.0,87,30.01,10.0,SSW,3.5,-,N/A,,Overcast,210,2013-10-27 11:15:00
7:35 AM,35.2,32.0,88,30.01,10.0,SSW,3.5,-,N/A,,Overcast,200,2013-10-27 11:35:00
7:55 AM,35.1,31.8,88,30.01,10.0,Calm,Calm,-,N/A,,Overcast,0,2013-10-27 11:55:00
8:15 AM,34.9,32.0,89,30.01,10.0,Calm,Calm,-,N/A,,Overcast,0,2013-10-27 12:15:00
8:35 AM,35.1,32.0,89,30.02,10.0,Calm,Calm,-,N/A,,Overcast,0,2013-10-27 12:35:00
8:55 AM,35.6,32.9,90,30.02,10.0,Calm,Calm,-,N/A,,Overcast,0,2013-10-27 12:55:00
9:15 AM,37.0,33.4,87,30.03,10.0,Calm,Calm,-,N/A,,Overcast,0,2013-10-27 13:15:00
9:35 AM,38.5,34.3,85,30.03,10.0,Calm,Calm,-,N/A,,Overcast,0,2013-10-27 13:35:00
9:55 AM,39.6,33.8,80,30.04,10.0,Calm,Calm,-,N/A,,Overcast,0,2013-10-27 13:55:00
10:15 AM,40.5,34.2,78,30.03,10.0,Calm,Calm,-,N/A,,Overcast,0,2013-10-27 14:15:00
10:35 AM,41.4,35.1,78,30.03,10.0,South,3.5,-,N/A,,Overcast,180,2013-10-27 14:35:00
10:55 AM,41.7,34.9,77,30.03,10.0,WSW,3.5,-,N/A,,Overcast,240,2013-10-27 14:55:00
11:15 AM,43.7,35.8,74,30.03,10.0,South,4.6,-,N/A,,Overcast,170,2013-10-27 15:15:00
11:35 AM,43.7,35.4,73,30.02,10.0,SSW,5.8,-,N/A,,Overcast,200,2013-10-27 15:35:00
11:55 AM,45.0,36.1,71,30.02,10.0,South,5.8,-,N/A,,Overcast,190,2013-10-27 15:55:00
12:15 PM,47.8,37.6,68,30.02,10.0,South,8.1,-,N/A,,Scattered Clouds,190,2013-10-27 16:15:00
12:35 PM,48.7,37.0,64,30.01,10.0,SSW,6.9,-,N/A,,Clear,200,2013-10-27 16:35:00
12:55 PM,47.7,33.8,59,30.01,10.0,WSW,9.2,-,N/A,,Mostly Cloudy,250,2013-10-27 16:55:00
1:15 PM,48.0,33.3,57,30.01,10.0,SW,9.2,17.3,N/A,,Mostly Cloudy,220,2013-10-27 17:15:00
1:35 PM,49.1,33.6,55,29.99,10.0,WSW,12.7,-,N/A,,Overcast,250,2013-10-27 17:35:00
1:55 PM,50.4,33.6,53,29.98,10.0,West,5.8,-,N/A,,Overcast,260,2013-10-27 17:55:00
2:15 PM,51.8,32.9,49,29.97,10.0,WSW,9.2,-,N/A,,Scattered Clouds,240,2013-10-27 18:15:00
2:35 PM,52.3,34.0,50,29.96,10.0,WSW,11.5,16.1,N/A,,Scattered Clouds,250,2013-10-27 18:35:00
2:55 PM,51.3,33.1,50,29.96,10.0,SW,8.1,17.3,N/A,,Clear,230,2013-10-27 18:55:00
3:15 PM,52.0,33.8,50,29.95,10.0,West,9.2,-,N/A,,Clear,260,2013-10-27 19:15:00
3:35 PM,52.7,33.3,48,29.96,10.0,WSW,13.8,17.3,N/A,,Scattered Clouds,250,2013-10-27 19:35:00
3:55 PM,52.7,33.6,48,29.95,10.0,SW,11.5,17.3,N/A,,Scattered Clouds,220,2013-10-27 19:55:00
4:15 PM,52.7,32.5,46,29.95,10.0,SW,9.2,-,N/A,,Clear,230,2013-10-27 20:15:00
4:35 PM,52.7,32.0,45,29.96,10.0,WSW,11.5,17.3,N/A,,Clear,240,2013-10-27 20:35:00
4:55 PM,52.2,32.0,46,29.95,10.0,SW,10.4,19.6,N/A,,Clear,230,2013-10-27 20:55:00
5:15 PM,52.0,32.2,47,29.96,10.0,SW,11.5,-,N/A,,Clear,220,2013-10-27 21:15:00
5:35 PM,51.6,32.2,47,29.95,10.0,SW,10.4,-,N/A,,Clear,230,2013-10-27 21:35:00
5:55 PM,50.7,31.8,48,29.96,10.0,WSW,9.2,-,N/A,,Clear,240,2013-10-27 21:55:00
6:15 PM,49.6,32.2,51,29.96,10.0,SW,5.8,-,N/A,,Clear,220,2013-10-27 22:15:00
6:35 PM,48.2,32.0,54,29.96,10.0,SW,4.6,-,N/A,,Clear,220,2013-10-27 22:35:00
6:55 PM,46.2,32.0,58,29.96,10.0,SW,4.6,-,N/A,,Clear,230,2013-10-27 22:55:00
7:15 PM,45.3,32.0,60,29.97,10.0,SSW,3.5,-,N/A,,Clear,210,2013-10-27 23:15:00
7:35 PM,43.7,32.0,63,29.96,10.0,South,3.5,-,N/A,,Clear,180,2013-10-27 23:35:00
7:55 PM,41.5,32.0,69,29.97,10.0,South,3.5,-,N/A,,Clear,190,2013-10-27 23:55:00
8:15 PM,36.9,31.6,81,29.97,10.0,Calm,Calm,-,N/A,,Clear,0,2013-10-28 00:15:00
8:35 PM,34.9,30.7,85,29.97,10.0,SSW,3.5,-,N/A,,Clear,200,2013-10-28 00:35:00
8:55 PM,39.2,31.5,74,29.97,10.0,SSW,3.5,-,N/A,,Clear,210,2013-10-28 00:55:00
9:15 PM,39.9,31.1,71,29.98,10.0,SSW,3.5,-,N/A,,Clear,210,2013-10-28 01:15:00
9:35 PM,40.1,30.9,70,29.98,10.0,SSW,3.5,-,N/A,,Clear,200,2013-10-28 01:35:00
9:55 PM,39.4,30.7,71,29.98,10.0,SSW,4.6,-,N/A,,Clear,210,2013-10-28 01:55:00
10:15 PM,39.0,30.7,72,29.98,10.0,SSW,4.6,-,N/A,,Clear,210,2013-10-28 02:15:00
10:35 PM,39.0,30.6,72,29.98,10.0,SSW,4.6,-,N/A,,Clear,210,2013-10-28 02:35:00
10:55 PM,39.2,30.9,72,29.98,10.0,SSW,4.6,-,N/A,,Clear,200,2013-10-28 02:55:00
11:15 PM,38.5,30.7,74,30.00,10.0,SW,3.5,-,N/A,,Clear,230,2013-10-28 03:15:00
11:35 PM,39.6,31.1,72,30.01,10.0,WSW,3.5,-,N/A,,Clear,240,2013-10-28 03:35:00
11:55 PM,39.6,31.1,72,30.01,10.0,SW,4.6,-,N/A,,Clear,220,2013-10-28 03:55:00